STARLINK-1354 (45562 NORAD) Tracking and Keplerian Element Data

This shows tracking and keplerian element data for the satellite.

Feedback or suggestion? Click here.




ElementValue
Catalog45562
NameSTARLINK-1354
Epoch Orbit1375
Epoch Day197.16667824
Epoch Year2020
RAAN351.2603
Inclination52.9998
Eccentricity0.0001482
Argument of Perigee61.1676
Mean Anonmoly89.4272
Mean Motion15.33831612
Decay Rate-0.01160902
L11 45562U 20025AH 20197.16667824 -.01160902 00000-0 -38412-1 0 9990
L22 45562 52.9998 351.2603 0001482 61.1676 89.4272 15.33831612 13759

Live tracking and technical data element details for STARLINK-1354 (NORAD 45562). STARLINK-1354 can be tracked NOW for your location showing map with azimuth and elevation plus other details from your city location.

Track the satellite on the map from your city or location and see movement details for azimuth, elevation, latitude, longitude, range, height, and movement on the map or in text.







IsCatalogInMostPopularTable: catalog: 45562, numindb: 18
Update: records affected: 1



GetName: 45562 STARLINK-1354

Hit Count: updated at: Thu, 16 Jul 2020 03:58:22 GMT